Location: Pinon Hills
(34.4429°N, 117.6403°W)
Time: 23:06:49
(UTC-08:00)

XW-2F - Pass Details

Date: 23 October 2019
Orbit: 502 x 524 km, 97.5° (Epoch: 18 November)

Event Time Altitude Azimuth Distance (km) Brightness Sun altitude
Rises 18:34:15 0° 182° (S) 2,616 ? -6.4°
Reaches altitude 10° 18:36:25 10° 189° (S) 1,730 ? -6.8°
Maximum altitude 18:39:57 41° 261° (W) 748 ? -7.6°
Drops below altitude 10° 18:43:30 10° 333° (NNW) 1,730 ? -8.3°
Sets 18:45:40 0° 341° (NNW) 2,617 ? -8.7°
